Location: Unspecified
(35.6961°N, 0.0000°E)
Time: 11:08:07
(UTC+00:00)

Vanguard 3 - Pass Details

Date: 29 May 2019
Orbit: 508 x 3263 km, 33.3° (Epoch: 17 June)

Event Time Altitude Azimuth Distance (km) Brightness Sun altitude
Rises 19:41:53 0° 251° (WSW) 2,815 10.5 -6.7°
Reaches altitude 10° 19:43:48 10° 247° (WSW) 2,056 9.7 -7.0°
Maximum altitude 19:48:22 63° 167° (SSE) 959 7.3 -7.8°
Drops below altitude 10° 19:55:59 10° 88° (E) 3,371 9.8 -9.1°
Sets 19:59:55 0° 86° (E) 4,815 10.6 -9.7°
